FW8475 Weather Reports


time (UTC)temp
C
wind
direction
speed
KPH
gust
KPH
rain 1hr
cm
rain 24hr
cm
rain mn
cm
humidity
%
barometer
mb
20260507125016 22 293 1.6 4.8 0.00 1.85 0.00 59 1012.6
20260507124016 22 0.0 0.0 0.00 1.85 0.00 59 1012.6
20260507123056 22 0.0 1.6 0.00 1.85 0.00 59 1012.6
20260507122056 22 68 3.2 8.0 0.00 1.85 0.00 58 1012.6
20260507121016 22 45 3.2 9.7 0.00 1.85 0.00 58 1012.8
20260507120016 23 270 3.2 6.4 0.00 1.85 0.00 56 1012.8
20260507115016 23 315 3.2 6.4 0.00 1.85 0.00 52 1012.9
20260507114016 23 270 1.6 6.4 0.00 1.88 0.00 57 1013.0
20260507113016 23 0.0 1.6 0.00 1.91 0.00 58 1012.9
20260507112015 23 0.0 6.4 0.00 1.91 0.00 55 1013.0
20260507111016 22 203 1.6 6.4 0.00 1.91 0.00 58 1013.0
20260507110016 22 248 1.6 3.2 0.00 1.93 0.00 58 1013.1
20260507105016 23 0.0 0.0 0.00 2.03 0.00 58 1013.2
20260507104016 23 0.0 1.6 0.00 2.03 0.00 58 1013.3
20260507103015 22 0.0 1.6 0.00 2.06 0.00 61 1013.3
20260507102056 22 225 1.6 3.2 0.00 2.08 0.00 59 1013.5
20260507101016 22 0.0 3.2 0.00 2.08 0.00 64 1013.4
20260507100016 22 90 1.6 3.2 0.00 2.08 0.00 66 1013.5
20260507095015 22 68 3.2 3.2 0.00 2.08 0.00 64 1013.6
20260507094016 22 0.0 4.8 0.00 2.08 0.00 64 1013.5
20260507093055 21 90 1.6 3.2 0.00 2.08 0.00 69 1013.4
20260507092016 21 0.0 3.2 0.00 2.08 0.00 73 1013.4
20260507091016 20 0.0 1.6 0.00 2.08 0.00 72 1013.4
20260507090056 20 225 1.6 3.2 0.00 2.08 0.00 73 1013.5
20260507085015 20 68 1.6 3.2 0.00 2.08 0.00 74 1013.4
20260507084015 20 68 3.2 6.4 0.00 2.08 0.00 75 1013.4
20260507083015 19 0.0 0.0 0.00 2.08 0.00 76 1013.4
20260507082015 18 45 1.6 4.8 0.00 2.08 0.00 76 1013.4
20260507081015 18 0.0 1.6 0.00 2.08 0.00 80 1013.3
20260507080016 18 0.0 3.2 0.00 2.08 0.00 79 1013.4
20260507075015 18 0.0 1.6 0.00 2.11 0.00 81 1013.2
20260507074056 18 0 1.6 3.2 0.00 2.18 0.00 80 1013.3
20260507073016 18 68 1.6 3.2 0.00 2.24 0.00 81 1013.2
20260507072015 18 68 3.2 8.0 0.00 2.24 0.00 82 1013.2
20260507071015 18 0.0 1.6 0.00 2.26 0.00 84 1013.2
20260507070015 17 68 3.2 9.7 0.00 2.29 0.00 84 1013.1
20260507065016 17 0.0 3.2 0.00 2.29 0.00 87 1013.1
20260507064016 17 68 1.6 6.4 0.00 2.29 0.00 87 1013.0
20260507063016 16 68 4.8 9.7 0.00 2.29 0.00 88 1013.0
20260507062016 16 68 6.4 9.7 0.00 2.29 0.00 89 1013.0
20260507061016 16 0.0 1.6 0.00 2.29 0.00 89 1012.9
20260507060016 16 68 3.2 4.8 0.00 2.29 0.00 90 1012.8
20260507055056 16 68 1.6 4.8 0.00 2.29 0.00 91 1012.6
20260507054015 16 45 1.6 4.8 0.00 2.29 0.00 95 1012.4
20260507053056 15 23 3.2 4.8 0.00 2.29 0.00 97 1012.3
20260507052015 14 0.0 3.2 0.00 2.29 0.00 98 1012.2
20260507051015 13 23 1.6 3.2 0.00 2.29 0.00 99 1012.3
20260507050015 13 0.0 0.0 0.00 2.29 0.00 98 1012.2
20260507045015 13 0.0 0.0 0.00 2.29 0.00 99 1012.1
20260507044015 13 0.0 0.0 0.00 2.29 0.00 98 1012.0
20260507043015 12 0.0 0.0 0.00 2.29 0.00 98 1011.9
20260507042055 12 0.0 0.0 0.00 2.29 0.00 98 1011.8
20260507041015 13 0.0 0.0 0.00 2.29 0.00 98 1011.5
20260507040015 13 0.0 0.0 0.00 2.29 0.00 98 1011.7
20260507035015 13 0.0 1.6 0.00 2.29 0.00 98 1011.6
20260507034034 13 0.0 0.0 0.00 2.29 0.00 98 1011.7
20260507033015 13 0.0 0.0 0.00 2.29 0.00 98 1011.6
20260507032015 13 0.0 0.0 0.00 2.29 0.00 98 1011.7
20260507031055 13 0.0 0.0 0.00 2.29 0.00 98 1011.7
20260507030015 14 0.0 0.0 0.00 2.29 0.00 98 1011.7
20260507025015 14 0.0 0.0 0.00 2.29 0.00 98 1011.6
20260507024015 14 0.0 0.0 0.00 2.29 0.00 98 1011.6
20260507023015 14 0.0 1.6 0.00 2.29 0.00 98 1011.6
20260507022015 14 0.0 1.6 0.00 2.29 0.00 98 1011.5
20260507021015 14 0.0 1.6 0.00 2.29 0.00 98 1011.5
20260507020015 14 0.0 1.6 0.00 2.29 0.00 98 1011.4
20260507015015 14 0.0 1.6 0.00 2.29 0.00 98 1011.5
20260507014015 14 0.0 1.6 0.00 2.29 0.00 98 1011.5
20260507013055 14 0.0 1.6 0.00 2.29 0.00 98 1011.5
20260507012015 14 0.0 1.6 0.00 2.29 0.00 98 1011.5
20260507011015 15 0.0 1.6 0.00 2.29 0.00 98 1011.5
20260507010015 15 0.0 1.6 0.00 2.29 0.00 98 1011.5
20260507005015 15 0.0 1.6 0.00 2.29 0.00 98 1011.5
20260507004017 15 0.0 0.0 0.00 2.29 0.00 98 1011.6
20260507003017 15 0.0 0.0 0.00 2.29 0.00 99 1011.6
20260507002017 15 0.0 0.0 0.00 2.29 0.00 98 1011.7
20260507001017 15 0.0 0.0 0.00 2.29 0.00 98 1011.6
20260507000017 15 0.0 0.0 0.00 2.29 0.00 98 1011.6
20260506235017 15 0.0 0.0 0.00 2.29 0.00 98 1011.6
20260506234017 15 0.0 1.6 0.00 2.29 0.00 98 1011.7
20260506233017 14 0.0 0.0 0.00 2.29 0.00 98 1011.7
20260506232057 14 0.0 0.0 0.00 2.29 0.00 98 1011.6
20260506231017 14 0.0 1.6 0.00 2.29 0.00 98 1011.7
20260506230017 14 0.0 1.6 0.00 2.29 0.00 98 1011.9
20260506225017 14 0.0 1.6 0.00 2.29 0.00 98 1011.9
20260506224017 14 0.0 1.6 0.00 2.29 0.00 98 1011.8
20260506223017 14 0.0 0.0 0.00 2.29 0.00 98 1011.7
20260506222017 14 0.0 0.0 0.00 2.29 0.00 98 1011.7
20260506221057 15 0.0 0.0 0.00 2.29 0.00 98 1011.7
20260506220017 15 0.0 1.6 0.00 2.29 2.29 98 1011.6
20260506215016 15 0.0 0.0 0.00 2.29 2.29 98 1011.6
20260506214016 15 0.0 0.0 0.00 2.29 2.29 98 1011.6
20260506213016 15 0.0 0.0 0.00 2.29 2.29 98 1011.7
20260506212016 15 0.0 0.0 0.00 2.29 2.29 98 1011.8
20260506211016 15 0.0 0.0 0.00 2.29 2.29 98 1011.8
20260506210016 15 0.0 1.6 0.00 2.29 2.29 98 1011.7
20260506205016 15 0.0 1.6 0.00 2.29 2.29 98 1011.6
20260506204016 15 0.0 0.0 0.00 2.29 2.29 98 1011.5
20260506203016 15 0.0 0.0 0.00 2.29 2.29 98 1011.6
20260506202016 15 0.0 0.0 0.00 2.29 2.29 98 1011.5
20260506201016 15 0.0 0.0 0.00 2.29 2.29 98 1011.4
20260506200016 15 0.0 0.0 0.00 2.29 2.29 98 1011.4
20260506195016 15 0.0 0.0 0.30 2.29 2.29 98 1011.2
20260506194016 15 0.0 0.0 0.43 2.31 2.29 98 1011.2
20260506193056 15 0.0 0.0 0.46 2.31 2.29 98 1011.0
20260506192019 15 0.0 0.0 0.51 2.34 2.29 97 1011.1
20260506191016 15 0.0 0.0 0.53 2.34 2.29 97 1011.1
20260506190016 15 0.0 1.6 0.53 2.36 2.29 97 1010.9
20260506185016 15 0.0 1.6 0.23 2.11 1.98 97 1010.9
20260506184016 15 0.0 0.0 0.13 1.98 1.85 97 1010.9
20260506183016 16 0.0 0.0 0.08 1.93 1.83 97 1010.8
20260506182016 16 0.0 0.0 0.03 1.88 1.75 97 1010.8
20260506181016 16 0.0 0.0 0.00 1.85 1.75 97 1010.8
20260506180016 16 0.0 0.0 0.00 1.85 1.75 97 1010.7
20260506175016 16 0.0 0.0 0.00 1.85 1.75 97 1010.9
20260506174016 16 0.0 0.0 0.00 1.88 1.75 97 1010.8
20260506173039 16 0.0 0.0 0.00 1.93 1.75 97 1010.8
20260506172056 16 0.0 0.0 0.00 2.01 1.75 97 1010.6
20260506171016 16 0.0 0.0 0.00 2.03 1.75 97 1010.5
20260506165016 16 0.0 0.0 0.00 2.03 1.75 97 1010.5
20260506164056 16 0.0 0.0 0.00 2.06 1.75 97 1010.7
20260506163016 16 0.0 1.6 0.03 2.06 1.75 97 1010.7
20260506162016 16 0.0 0.0 0.08 2.11 1.75 97 1010.7
20260506161016 16 0.0 1.6 0.25 2.11 1.75 96 1010.5
20260506160016 16 0.0 1.6 0.56 2.11 1.75 96 1010.6
20260506155016 16 0.0 0.0 0.76 2.16 1.75 96 1010.6
20260506154033 16 0.0 1.6 0.99 2.18 1.75 96 1010.5
20260506153016 16 0.0 1.6 1.24 2.21 1.73 95 1010.5
20260506152056 16 0.0 1.6 1.19 2.13 1.65 96 1010.7
20260506151016 16 0.0 1.6 1.02 1.96 1.47 95 1010.7
20260506150016 16 0.0 0.0 0.71 1.68 1.17 95 1010.8
20260506145016 16 225 1.6 3.2 0.51 1.50 0.99 93 1010.6
20260506144016 17 0.0 0.0 0.28 1.27 0.71 91 1010.5
20260506143016 17 0.0 0.0 0.03 1.02 0.48 90 1010.6
20260506142016 17 0.0 0.0 0.03 1.02 0.46 91 1010.7
20260506141015 17 0.0 1.6 0.05 1.04 0.46 91 1010.9
20260506140056 17 0.0 0.0 0.05 1.09 0.46 92 1010.9
20260506135055 16 0.0 0.0 0.05 1.12 0.46 92 1011.0
20260506134016 16 0.0 1.6 0.05 1.14 0.46 92 1011.2
20260506133016 16 0.0 0.0 0.05 1.14 0.46 91 1011.1
20260506132016 16 0.0 0.0 0.03 1.14 0.43 89 1011.2
20260506131016 17 315 1.6 3.2 0.00 1.14 0.43 90 1011.0
20260506130156 17 23 1.6 3.2 0.00 1.14 0.43 90 1011.2
20260506125316 17 293 1.6 1.6 0.00 1.17 0.43 90 1011.2